Simultaneous Nadir Overpasses (SNOs) Predictions

Prediction of SNOs between AQUA and METOP-A Satellite Orbit:

Table of predicted SNOs for the next 14.0 days since TLE Epoch: 10/11/2013
Index Date (AQUA) Time (AQUA) Lat,Lon (AQUA) SZA (AQUA ) Date (METOP-A) Time (METOP-A) Lat,Lon (METOP-A) SZA (METOP-A ) Distance(km) Time Diff (sec)
1 10/12/2013 07:22:44 73.81, 63.58 81.22 10/12/2013 07:21:58 73.84, 63.58 81.26 3.37 46
2 10/12/2013 08:12:11 -73.89,-128.95 98.69 10/12/2013 08:12:39 -73.87,-129.02 98.71 3.23 28
3 10/15/2013 02:56:55 73.82, 130.00 82.28 10/15/2013 02:56:20 73.83, 129.96 82.29 1.49 35
4 10/15/2013 03:46:22 -73.90, -62.52 97.63 10/15/2013 03:47:00 -73.91, -62.51 97.62 1.59 38
5 10/17/2013 22:31:07 73.87,-163.64 83.36 10/17/2013 22:30:42 73.86,-163.55 83.36 2.69 25
6 10/17/2013 23:20:33 -73.89, 3.96 96.61 10/17/2013 23:21:23 -73.90, 3.87 96.60 3.12 50
7 10/20/2013 17:15:43 -73.49, 96.00 96.03 10/20/2013 17:14:33 -73.46, 94.58 96.04 44.90 70
8 10/20/2013 18:05:17 73.83, -97.11 84.34 10/20/2013 18:05:05 73.84, -97.19 84.35 2.88 12
9 10/20/2013 18:54:44 -73.91, 70.37 95.58 10/20/2013 18:55:45 -73.94, 70.36 95.55 3.63 61
10 10/23/2013 12:49:58 -73.79, 161.80 94.73 10/23/2013 12:48:48 -73.79, 161.75 94.73 1.68 70
11 10/23/2013 13:39:27 73.88, -30.76 85.38 10/23/2013 13:39:26 73.87, -30.73 85.36 1.95 1




NCC Satellite Simultaneous Nadir Overpasses (SNOs) Prediction Service
